Precipitable_Water
0.91 0.87 0.84 0.72 0.37 0.29 0.28 0.30 0.45 0.58 0.63 0.71 0.66 0.61 0.56 0.60 0.56 0.54 1.05 1.09 1.11 1.14 1.22 1.25 1.35 1.39 1.35 1.37 1.33 1.18 1.09 0.98 0.89 0.79 0.78 0.75 0.81 0.89 0.89 0.83 0.84 0.86 0.88 0.86 0.89 0.96 0.99 0.99 0.96
0.92 0.84 0.73 0.64 0.31 0.29 0.28 0.34 0.50 0.54 0.62 0.61 0.66 0.66 0.61 0.57 0.74 0.86 1.00 1.06 1.12 1.17 1.26 1.26 1.37 1.40 1.31 1.38 1.31 1.14 1.03 0.95 0.91 0.81 0.84 0.86 0.85 0.87 0.91 0.85 0.85 0.84 0.81 0.81 0.80 0.80 0.87 0.94 0.91
0.92 0.84 0.59 0.52 0.43 0.22 0.33 0.50 0.52 0.55 0.60 0.57 0.61 0.67 0.63 0.63 0.77 0.91 1.08 1.07 1.13 1.14 1.30 1.40 1.33 1.33 1.41 1.37 1.24 1.13 1.06 0.96 0.91 0.79 0.90 1.01 0.99 1.03 0.94 0.92 0.88 0.80 0.84 0.82 0.82 0.79 0.74 0.80 0.81
0.82 0.69 0.63 0.41 0.39 0.45 0.34 0.50 0.56 0.52 0.57 0.61 0.64 0.62 0.75 0.89 0.87 1.00 1.07 1.11 1.15 1.17 1.34 1.36 1.31 1.36 1.41 1.32 1.26 1.20 1.14 1.02 0.94 0.81 0.89 0.98 1.07 1.14 1.06 0.99 0.94 0.90 0.88 0.83 0.82 0.80 0.79 0.79 0.77
0.83 0.69 0.47 0.41 0.43 0.51 0.41 0.38 0.49 0.42 0.48 0.52 0.63 0.63 0.69 0.89 0.97 1.04 1.05 1.13 1.15 1.24 1.37 1.29 1.29 1.33 1.38 1.35 1.32 1.25 1.18 1.07 1.04 0.88 0.91 0.97 1.05 1.11 1.12 1.02 0.99 0.96 0.88 0.83 0.78 0.76 0.76 0.80 0.83
0.66 0.66 0.43 0.37 0.40 0.51 0.56 0.48 0.39 0.40 0.46 0.54 0.58 0.61 0.73 0.94 0.99 1.03 1.07 1.09 1.21 1.22 1.27 1.23 1.29 1.32 1.35 1.36 1.29 1.24 1.21 1.13 1.05 0.98 1.06 1.08 1.04 1.05 1.14 1.13 1.03 0.86 0.82 0.82 0.79 0.74 0.80 0.83 0.89
0.63 0.55 0.46 0.44 0.42 0.48 0.60 0.56 0.40 0.40 0.49 0.51 0.60 0.56 0.81 0.86 0.94 1.09 1.10 1.14 1.20 1.25 1.23 1.25 1.25 1.34 1.35 1.30 1.26 1.24 1.23 1.18 1.12 1.05 1.00 1.08 1.09 1.05 1.06 1.07 0.94 0.85 0.83 0.81 0.80 0.80 0.81 0.87 0.89
0.71 0.64 0.48 0.49 0.45 0.44 0.57 0.56 0.55 0.38 0.43 0.63 0.63 0.54 0.68 0.82 0.95 1.04 1.10 1.12 1.12 1.23 1.22 1.23 1.27 1.32 1.35 1.27 1.28 1.24 1.23 1.22 1.17 1.13 1.07 0.96 0.98 1.06 1.03 1.00 0.99 0.96 0.94 0.91 0.88 0.91 0.91 0.91 0.96
0.83 0.53 0.44 0.47 0.48 0.49 0.56 0.54 0.62 0.59 0.46 0.54 0.61 0.60 0.71 0.78 0.87 0.91 0.95 1.01 1.07 1.15 1.20 1.24 1.28 1.36 1.41 1.38 1.36 1.32 1.26 1.21 1.17 1.12 1.09 1.08 0.91 1.01 1.10 1.08 1.02 0.97 0.92 0.92 0.93 0.95 0.98 0.99 1.00
0.66 0.49 0.44 0.56 0.57 0.54 0.58 0.58 0.55 0.59 0.52 0.47 0.57 0.65 0.72 0.72 0.73 0.73 0.82 0.94 1.02 1.06 1.13 1.23 1.26 1.31 1.37 1.39 1.39 1.31 1.26 1.28 1.24 1.21 1.15 1.09 1.03 1.01 1.07 1.01 0.94 0.93 0.95 0.97 0.99 1.02 1.03 1.05 1.04
0.66 0.47 0.55 0.55 0.60 0.62 0.60 0.59 0.59 0.55 0.53 0.47 0.54 0.65 0.72 0.73 0.71 0.70 0.76 0.85 0.95 1.08 1.15 1.21 1.26 1.29 1.32 1.34 1.34 1.35 1.30 1.28 1.26 1.22 1.14 1.09 1.01 0.96 0.99 1.00 1.00 1.01 1.02 1.01 1.03 1.05 1.06 1.06 1.07
0.58 0.63 0.63 0.59 0.67 0.67 0.61 0.62 0.56 0.55 0.55 0.64 0.61 0.71 0.71 0.69 0.69 0.68 0.73 0.78 0.89 1.02 1.09 1.18 1.23 1.27 1.29 1.36 1.33 1.33 1.30 1.26 1.25 1.20 1.13 1.07 1.03 1.01 0.99 1.00 1.01 1.02 1.03 1.01 1.03 1.05 1.08 1.12 1.14
0.61 0.67 0.67 0.67 0.64 0.68 0.70 0.60 0.56 0.55 0.58 0.68 0.62 0.61 0.65 0.68 0.71 0.72 0.77 0.83 0.89 0.96 1.04 1.08 1.17 1.22 1.26 1.31 1.35 1.33 1.32 1.28 1.28 1.24 1.20 1.14 1.06 1.03 1.06 1.05 1.08 1.11 1.14 1.15 1.16 1.17 1.18 1.18 1.19
0.66 0.70 0.69 0.72 0.65 0.66 0.63 0.60 0.59 0.57 0.61 0.58 0.68 0.58 0.64 0.67 0.69 0.72 0.76 0.80 0.90 0.96 1.03 1.10 1.13 1.15 1.23 1.27 1.31 1.34 1.34 1.33 1.31 1.25 1.23 1.20 1.15 1.11 1.13 1.16 1.21 1.22 1.23 1.23 1.21 1.18 1.17 1.14 1.09
0.62 0.59 0.65 0.63 0.68 0.63 0.69 0.53 0.51 0.59 0.63 0.52 0.64 0.65 0.49 0.55 0.62 0.70 0.76 0.78 0.81 0.90 0.94 0.94 1.02 1.12 1.13 1.23 1.29 1.33 1.35 1.33 1.28 1.25 1.28 1.22 1.19 1.17 1.18 1.20 1.20 1.19 1.22 1.22 1.18 1.08 0.97 0.89 0.87
0.56 0.56 0.46 0.52 0.64 0.64 0.65 0.45 0.55 0.63 0.63 0.53 0.60 0.57 0.52 0.52 0.56 0.63 0.69 0.73 0.76 0.78 0.81 0.88 0.91 0.90 1.03 1.17 1.26 1.32 1.34 1.28 1.24 1.25 1.25 1.21 1.18 1.19 1.19 1.14 1.07 1.07 1.06 0.94 0.85 0.72 0.68 0.67 0.66
0.49 0.34 0.35 0.43 0.63 0.62 0.57 0.48 0.55 0.61 0.59 0.55 0.53 0.55 0.54 0.55 0.54 0.58 0.62 0.68 0.72 0.78 0.82 0.85 0.84 0.79 0.95 1.15 1.22 1.23 1.24 1.18 1.15 1.17 1.12 1.07 1.06 1.05 1.01 0.94 0.83 0.77 0.71 0.66 0.65 0.64 0.65 0.62 0.58
0.31 0.38 0.39 0.38 0.50 0.59 0.53 0.52 0.57 0.60 0.55 0.51 0.50 0.52 0.54 0.56 0.54 0.57 0.60 0.66 0.74 0.81 0.86 0.87 0.91 0.95 1.04 1.10 1.13 1.11 1.08 1.01 1.04 1.02 0.96 0.91 0.89 0.87 0.79 0.69 0.63 0.63 0.65 0.65 0.64 0.59 0.56 0.50 0.47
0.36 0.41 0.43 0.44 0.54 0.55 0.51 0.50 0.56 0.61 0.57 0.53 0.54 0.54 0.53 0.57 0.59 0.59 0.63 0.67 0.78 0.86 0.87 0.89 0.90 0.96 0.99 1.02 0.96 0.94 0.89 0.91 0.92 0.90 0.84 0.78 0.72 0.64 0.59 0.61 0.61 0.62 0.60 0.58 0.52 0.46 0.40 0.37 0.34
0.37 0.41 0.42 0.52 0.56 0.54 0.51 0.49 0.59 0.59 0.52 0.52 0.51 0.54 0.54 0.58 0.56 0.57 0.62 0.66 0.75 0.85 0.91 0.94 0.97 0.97 0.99 0.95 0.91 0.88 0.87 0.87 0.82 0.76 0.70 0.64 0.60 0.60 0.59 0.57 0.57 0.55 0.51 0.47 0.42 0.38 0.34 0.32 0.33
0.34 0.36 0.45 0.51 0.57 0.58 0.55 0.45 0.51 0.52 0.52 0.52 0.54 0.58 0.58 0.57 0.55 0.54 0.58 0.64 0.71 0.76 0.80 0.85 0.89 0.88 0.88 0.85 0.80 0.77 0.79 0.75 0.69 0.65 0.63 0.62 0.60 0.57 0.56 0.54 0.52 0.47 0.41 0.36 0.33 0.33 0.30 0.28 0.29
0.29 0.39 0.46 0.58 0.57 0.41 0.55 0.30 0.42 0.45 0.46 0.50 0.53 0.55 0.55 0.58 0.56 0.55 0.58 0.61 0.64 0.69 0.73 0.75 0.75 0.75 0.75 0.74 0.72 0.69 0.64 0.60 0.61 0.61 0.61 0.60 0.59 0.57 0.52 0.46 0.40 0.36 0.35 0.32 0.30 0.30 0.29 0.30 0.28
0.34 0.46 0.50 0.57 0.55 0.54 0.46 0.38 0.38 0.49 0.43 0.46 0.48 0.51 0.55 0.59 0.59 0.55 0.58 0.62 0.66 0.69 0.69 0.70 0.70 0.68 0.70 0.71 0.70 0.64 0.59 0.59 0.60 0.60 0.57 0.56 0.55 0.49 0.42 0.38 0.36 0.35 0.34 0.30 0.30 0.29 0.30 0.30 0.29
0.46 0.51 0.60 0.63 0.58 0.39 0.47 0.41 0.36 0.40 0.42 0.47 0.48 0.49 0.55 0.59 0.61 0.57 0.60 0.65 0.66 0.69 0.68 0.67 0.66 0.66 0.67 0.67 0.65 0.62 0.60 0.59 0.57 0.57 0.56 0.52 0.47 0.43 0.40 0.40 0.38 0.36 0.33 0.31 0.31 0.31 0.29 0.28 0.28
0.49 0.45 0.38 0.37 0.37 0.33 0.42 0.41 0.40 0.45 0.49 0.48 0.46 0.49 0.55 0.60 0.61 0.58 0.57 0.61 0.65 0.65 0.65 0.66 0.65 0.63 0.65 0.63 0.62 0.61 0.60 0.58 0.58 0.57 0.53 0.48 0.45 0.43 0.41 0.40 0.37 0.33 0.32 0.31 0.30 0.29 0.27 0.25 0.23
0.45 0.49 0.41 0.31 0.29 0.32 0.42 0.35 0.39 0.51 0.50 0.50 0.51 0.51 0.54 0.56 0.58 0.57 0.58 0.61 0.63 0.64 0.64 0.64 0.63 0.61 0.61 0.60 0.60 0.61 0.58 0.59 0.56 0.53 0.49 0.48 0.47 0.44 0.41 0.37 0.32 0.31 0.31 0.30 0.28 0.26 0.24 0.24 0.24
0.48 0.44 0.61 0.46 0.37 0.30 0.35 0.42 0.45 0.48 0.48 0.49 0.48 0.52 0.51 0.53 0.56 0.56 0.59 0.61 0.63 0.62 0.64 0.63 0.61 0.60 0.60 0.59 0.59 0.56 0.58 0.57 0.53 0.51 0.51 0.50 0.48 0.43 0.39 0.33 0.30 0.30 0.29 0.28 0.26 0.24 0.24 0.24 0.22
0.63 0.63 0.49 0.48 0.29 0.26 0.34 0.34 0.33 0.39 0.39 0.42 0.45 0.48 0.52 0.55 0.56 0.57 0.61 0.64 0.65 0.64 0.65 0.63 0.62 0.60 0.61 0.60 0.57 0.57 0.57 0.54 0.52 0.52 0.51 0.49 0.46 0.40 0.33 0.30 0.30 0.29 0.28 0.26 0.25 0.25 0.24 0.22 0.21
0.56 0.54 0.59 0.55 0.42 0.32 0.31 0.34 0.45 0.41 0.40 0.39 0.44 0.48 0.53 0.55 0.57 0.59 0.64 0.67 0.65 0.66 0.66 0.64 0.63 0.62 0.60 0.57 0.57 0.59 0.56 0.54 0.52 0.52 0.51 0.49 0.43 0.37 0.31 0.29 0.28 0.28 0.26 0.26 0.25 0.24 0.23 0.21 0.20
0.62 0.61 0.57 0.41 0.38 0.42 0.39 0.34 0.48 0.46 0.44 0.45 0.46 0.52 0.56 0.58 0.59 0.61 0.65 0.65 0.64 0.64 0.65 0.64 0.63 0.60 0.57 0.57 0.61 0.60 0.57 0.54 0.53 0.53 0.50 0.46 0.40 0.33 0.30 0.29 0.28 0.27 0.26 0.26 0.25 0.23 0.22 0.21 0.19
Wind_Speed
16 15 13 10 9 11 13 16 15 10 12 10 12 12 12 13 10 9 8 7 6 6 5 6 6 6 7 7 7 8 8 8 8 7 6 8 9 9 9 9 9 9 8 8 9 10 11 11 11
17 16 13 11 10 11 11 16 13 14 11 13 13 13 12 9 8 9 9 8 7 6 6 6 6 6 7 7 7 8 8 8 8 7 7 7 8 9 9 8 8 9 9 10 10 11 12 13 13
19 17 13 12 11 11 11 7 10 10 12 12 12 11 13 11 9 10 10 10 8 8 7 6 6 6 7 6 7 7 8 8 8 8 7 7 8 9 9 9 9 9 10 11 11 12 13 14 14
18 16 16 15 17 15 14 17 10 12 13 11 12 12 12 12 12 11 10 10 9 8 7 7 6 6 6 7 7 7 8 8 8 8 8 8 8 9 11 10 10 11 12 12 13 13 14 14 15
20 18 17 16 18 16 14 14 14 14 15 14 11 14 10 11 11 11 12 11 10 9 8 8 7 7 7 7 7 8 8 8 8 8 8 8 9 10 11 12 12 13 13 13 14 15 15 15 16
21 19 19 19 19 19 13 15 13 16 16 14 14 13 13 11 11 12 13 12 11 10 9 8 8 8 8 8 8 9 9 8 9 8 8 9 9 9 10 12 12 12 13 14 15 15 15 16 16
25 23 23 22 21 19 13 11 13 15 13 14 13 14 14 11 11 12 13 13 12 11 10 10 9 9 9 9 9 9 9 9 9 9 10 10 10 11 10 11 13 13 14 14 15 16 16 17 17
25 25 27 24 22 22 18 15 15 15 17 15 13 14 14 11 13 13 13 14 14 13 12 11 11 10 10 10 10 10 10 10 10 10 10 11 12 12 13 14 15 15 16 17 17 18 18 19 20
25 26 28 27 25 23 19 16 17 14 17 19 18 18 16 15 14 14 14 14 15 15 14 13 12 12 12 11 11 11 11 11 11 11 11 11 11 13 13 13 14 16 17 18 19 19 20 21 22
29 27 30 26 24 23 22 18 18 17 17 18 17 19 19 17 15 16 15 15 15 16 16 15 14 13 12 12 11 11 11 11 11 11 11 11 12 12 11 14 15 16 17 18 19 19 20 21 22
31 33 27 29 29 26 24 22 19 19 19 19 19 18 17 16 17 18 17 16 16 16 16 15 15 14 13 13 13 12 11 12 12 12 10 11 11 12 12 13 14 15 17 18 19 20 21 22 23
32 34 31 30 29 26 26 24 24 23 20 19 22 22 22 21 20 19 18 16 16 16 16 15 15 15 15 15 14 13 13 12 12 12 12 12 12 13 13 14 15 17 18 19 20 21 22 23 25
35 32 33 31 32 32 26 26 26 26 23 23 23 24 24 23 22 21 19 17 17 16 16 16 16 16 16 16 15 15 14 14 14 14 13 13 14 14 15 16 17 18 19 20 21 22 23 24 25
27 35 33 32 32 32 32 29 27 25 23 24 23 23 22 22 20 19 20 19 18 18 17 17 17 17 17 16 16 16 15 15 15 15 15 15 16 16 17 18 19 19 20 21 22 23 24 25 25
33 33 32 36 33 33 30 33 31 25 25 27 25 22 23 19 18 21 20 19 18 17 17 17 17 17 17 17 16 16 16 16 16 15 15 16 17 17 18 19 19 20 22 22 23 23 24 24 25
27 32 33 34 31 33 32 33 28 25 25 26 23 19 16 17 18 19 20 20 19 19 18 17 18 18 17 16 16 15 15 16 16 16 16 16 17 17 18 19 20 21 21 22 23 24 25 25 26
30 32 39 33 34 31 34 34 28 28 27 21 21 20 18 15 15 16 18 19 18 17 16 16 15 15 15 14 14 13 15 15 15 15 15 15 16 17 18 20 21 21 22 23 24 25 26 28 29
31 32 34 34 33 34 34 33 28 26 22 24 22 20 19 17 15 14 15 15 15 15 14 13 12 12 12 12 12 13 13 13 13 13 14 14 16 17 19 20 21 22 23 24 25 27 28 30 31
33 33 32 35 31 35 35 34 30 28 28 25 24 20 19 17 15 14 14 13 13 12 12 11 10 10 11 11 11 12 12 11 11 12 13 14 16 18 20 21 22 24 25 26 27 29 30 31 33
37 36 36 29 34 32 34 33 30 28 30 28 25 23 21 18 15 15 14 13 12 11 10 9 9 9 9 10 10 10 10 10 11 12 14 15 17 19 21 23 24 25 26 28 29 30 31 32 33
41 39 34 30 31 27 27 29 30 28 29 28 26 24 22 20 17 16 14 14 13 12 10 10 9 9 9 9 9 9 9 10 12 14 16 18 19 21 23 25 26 27 28 29 30 31 32 33 34
42 41 39 31 27 27 27 22 29 30 31 29 26 24 22 20 18 17 15 14 13 12 11 10 9 9 9 9 9 10 11 12 14 15 17 20 21 23 25 26 27 28 29 30 31 32 33 35 36
38 35 39 34 29 24 25 22 25 23 28 28 25 25 24 21 19 18 16 15 14 13 12 10 9 8 8 8 9 10 11 13 15 17 19 21 23 24 26 27 28 29 30 32 33 34 36 37 39
32 32 33 32 22 22 26 21 18 23 23 22 23 23 22 21 19 18 17 16 15 14 12 11 10 9 9 9 10 11 13 15 17 19 21 23 24 26 27 28 30 31 32 33 34 36 39 40 41
39 33 21 24 21 20 27 22 19 13 17 23 22 22 22 20 19 19 18 18 17 15 14 12 11 10 10 11 12 13 15 17 19 21 22 24 25 27 29 31 32 33 34 36 37 39 41 42 44
41 30 17 17 23 20 18 21 17 19 15 16 19 20 20 20 19 20 19 19 18 17 15 14 12 12 12 12 14 16 18 19 20 22 23 25 27 29 31 33 34 35 36 38 40 42 43 45 46
30 30 24 15 21 17 18 15 13 16 15 17 19 20 20 19 19 19 19 18 18 17 16 15 13 13 13 14 16 18 19 20 22 22 24 26 29 31 34 35 36 37 39 41 42 44 45 46 48
22 25 19 15 16 16 17 19 15 18 17 18 19 20 19 18 18 18 18 18 18 17 16 15 15 14 15 16 18 19 20 21 22 24 26 29 31 34 36 37 38 40 41 43 44 46 47 49 49
22 21 22 12 13 14 14 11 17 15 16 17 18 19 19 19 19 19 18 18 18 17 16 16 16 16 17 18 19 20 21 22 24 26 29 31 34 36 37 39 40 42 43 45 46 48 49 50 51
24 19 14 13 11 10 11 11 11 11 11 14 16 18 18 18 18 18 18 18 18 18 17 17 17 17 19 20 20 21 22 24 26 29 31 34 36 38 40 41 42 44 45 47 48 49 51 51 53
Wind_Direction
280 285 288 281 260 241 243 236 242 241 237 244 253 247 257 263 264 251 253 267 271 273 278 282 290 296 301 300 294 301 306 310 308 299 281 266 251 253 264 267 266 271 275 276 274 273 272 277 281
273 278 277 266 257 250 243 240 229 241 245 252 251 243 245 248 251 243 253 263 265 267 278 282 290 299 306 304 300 303 305 308 306 300 288 273 258 253 263 265 268 272 278 280 279 279 277 277 282
267 267 262 252 248 248 249 255 247 253 257 248 245 243 248 253 261 251 249 255 259 264 272 274 289 298 306 305 308 306 307 306 302 296 288 279 264 259 260 265 271 274 281 284 283 283 282 280 282
260 259 254 249 254 255 246 248 255 257 253 245 250 250 239 255 250 251 247 251 254 259 265 271 280 292 301 308 310 308 309 306 301 295 283 280 274 267 264 266 273 278 283 285 285 284 284 284 285
251 249 249 253 253 258 255 256 242 252 247 247 247 244 246 250 247 249 247 251 250 251 261 268 271 284 294 304 306 307 310 308 301 296 285 284 283 275 266 267 275 280 284 286 288 287 286 285 286
247 242 246 249 250 256 245 253 250 249 244 247 241 252 247 250 251 252 247 249 249 251 258 260 266 276 290 297 302 306 306 306 301 295 285 288 287 285 275 271 277 283 286 287 290 290 289 287 287
243 243 244 248 253 255 249 249 251 248 248 248 245 244 240 248 256 251 248 248 248 249 255 259 263 274 284 291 299 303 303 302 300 296 289 287 285 285 283 276 278 284 287 289 291 291 290 289 288
244 243 244 244 248 253 257 250 252 249 243 255 243 236 244 249 252 252 251 247 245 248 255 258 264 271 277 283 293 298 300 298 298 296 295 290 284 283 284 280 280 283 286 288 289 289 289 289 288
243 242 240 238 243 249 246 247 251 245 249 246 245 246 245 246 251 252 253 250 248 248 254 258 263 269 272 278 286 293 297 296 296 294 294 296 288 284 284 284 285 286 286 287 288 289 289 290 291
237 240 242 241 243 247 249 245 247 254 255 249 246 246 244 247 251 256 250 249 248 248 252 257 262 265 270 276 281 289 293 294 294 296 293 295 291 292 288 290 290 291 291 291 291 290 291 292 292
239 241 245 241 244 248 246 250 253 252 253 248 246 250 249 255 259 256 251 252 250 249 251 255 260 263 266 272 279 284 290 293 294 295 294 296 296 295 296 296 295 296 296 295 294 294 293 293 293
241 241 240 245 244 244 244 248 250 251 253 252 253 253 252 257 256 252 251 255 253 249 250 255 259 262 266 271 274 280 286 289 293 294 293 296 297 296 297 298 298 298 298 297 296 296 295 294 294
244 245 244 242 243 245 247 243 248 251 253 254 256 253 252 253 251 249 251 252 256 250 252 256 260 262 265 267 271 276 281 285 288 289 292 293 295 296 297 299 300 299 299 300 299 299 298 298 297
246 244 245 244 242 241 245 246 246 247 251 251 253 254 253 252 250 246 252 251 252 253 252 257 259 262 264 265 269 274 277 281 284 287 289 291 292 294 297 299 301 302 302 302 301 301 301 300 300
243 247 241 240 241 240 240 243 242 248 250 251 249 255 253 246 248 247 249 250 253 254 257 260 262 262 262 264 269 273 276 280 284 285 288 291 292 294 297 300 302 303 303 303 302 302 302 303 302
243 241 241 236 238 238 236 242 245 247 245 244 243 247 244 244 250 246 248 249 251 253 256 260 261 260 260 262 268 272 276 279 281 284 288 292 294 296 298 300 303 304 304 305 304 305 305 304 303
237 238 236 238 234 237 233 242 242 242 243 240 240 248 241 240 243 247 247 245 246 250 254 256 255 255 255 260 266 270 276 281 283 284 288 294 298 300 300 302 303 305 305 305 306 306 306 305 304
236 234 239 234 233 235 239 237 235 240 236 236 238 245 235 237 240 245 243 241 241 243 247 249 251 252 253 258 264 271 277 282 283 287 291 296 300 303 304 305 305 306 305 306 306 306 306 305 305
240 241 239 237 233 232 236 237 236 236 238 238 240 241 232 231 239 242 238 235 234 237 239 242 245 247 251 257 264 272 276 278 283 289 295 300 303 305 306 306 307 306 307 307 307 307 307 307 307
238 240 240 240 233 231 234 232 232 235 238 235 234 237 231 227 235 235 232 230 230 232 234 239 243 247 252 260 267 271 271 276 285 292 298 303 307 309 309 308 308 308 308 308 308 309 308 307 309
235 233 231 233 233 229 231 235 234 236 235 233 233 235 227 222 230 229 228 226 227 229 232 234 241 248 255 260 264 265 277 283 290 296 301 304 308 310 310 310 309 309 309 309 309 310 310 308 309
233 226 226 231 233 218 220 233 228 233 231 229 228 225 218 219 224 225 224 224 223 224 224 230 240 247 255 257 262 271 280 287 293 297 301 304 308 310 312 312 311 311 310 310 310 310 309 309 308
228 216 219 224 227 217 227 226 228 236 222 222 222 223 216 219 221 221 222 220 219 219 223 231 240 249 255 260 270 279 287 293 297 301 304 306 308 311 312 313 312 311 311 310 310 310 309 309 308
215 206 214 232 212 221 211 216 227 229 217 215 218 212 210 214 216 219 219 217 217 219 224 230 238 248 257 268 278 286 292 297 301 304 306 308 309 311 313 313 312 311 311 310 310 309 309 309 308
209 202 207 203 209 219 207 217 225 222 210 211 207 206 209 214 217 218 218 217 218 221 226 232 239 249 261 273 283 290 296 299 303 305 307 309 310 312 313 313 312 311 311 310 310 310 309 309 308
198 192 200 197 191 195 190 212 210 214 208 200 202 204 209 215 217 215 216 216 218 222 228 232 241 252 265 276 286 293 297 300 303 306 308 310 311 312 313 313 312 311 311 311 310 310 310 309 308
187 205 207 216 203 197 205 206 208 206 211 207 205 206 209 212 212 212 213 215 219 224 229 235 244 256 268 279 288 295 299 301 304 306 308 310 312 313 313 313 312 312 312 311 311 310 310 309 309
207 196 206 199 187 190 199 204 208 205 206 209 204 205 207 210 209 211 214 217 222 225 231 239 249 260 272 281 289 295 298 302 304 307 309 311 312 313 314 313 313 312 312 312 311 311 310 310 309
192 189 200 188 177 184 181 197 195 197 201 207 208 206 208 212 213 214 217 220 223 228 236 245 255 265 275 283 290 295 298 301 304 307 309 311 312 314 314 314 313 313 312 312 312 311 311 311 310
190 186 186 185 178 186 184 192 184 188 196 203 209 206 210 215 215 217 220 222 227 234 242 251 259 268 277 285 290 295 298 301 305 308 310 312 313 314 314 314 314 313 313 313 313 312 312 311 312